User: anonymous   Login
Location: Shell Point
(30.0571°N, 84.2896°W)
Time: 04:25:56
(UTC-04:00)
Language:

Meteor 2-19 Rocket - Orbit

View from above orbital plane
View from above orbital plane
View from above satellite
View from above satellite

Ground track
Ground track

The orbit data is extracted from the following two-line orbital elements,

1 20671U 90057B   15184.70461773  .00000024  00000-0  84530-5 0  9992
2 20671 082.5456 220.0310 0015693 159.2583 340.0036 13.84591847264191
Epoch (UTC): 03 July 2015 16:54:38
Eccentricity: 0.0015693
inclination: 82.5456°
perigee height: 936 km
apogee height: 959 km
right ascension of ascending node: 220.0310°
argument of perigee: 159.2583°
revolutions per day: 13.84591847
mean anomaly at epoch: 340.0036°
orbit number at epoch: 26419

The dashed part of the orbit path shows where the satellite is in the earth's shadow,  

DLR